Time,TemperatureF,DewpointF,PressureIn,WindDirection,WindDirectionDegrees,WindSpeedMPH,WindSpeedGustMPH,Humidity,HourlyPrecipIn,Conditions,Clouds,dailyrainin,SoftwareType,DateUTC
2013-05-02 00:01:00,68.7,58.9,30.15,North,360,0.0,0.0,71,0.00,,,0.00,Wunderground v.1.13,2013-05-02 04:01:00,
2013-05-02 00:03:00,68.6,59.2,30.15,North,360,0.0,0.0,72,0.00,,,0.00,Wunderground v.1.13,2013-05-02 04:03:00,
2013-05-02 00:05:00,68.6,59.2,30.15,North,32767,0.0,0.0,72,0.00,,,0.00,Wunderground v.1.13,2013-05-02 04:05:00,
2013-05-02 00:06:00,68.6,59.2,30.15,North,360,0.0,0.0,72,0.00,,,0.00,Wunderground v.1.13,2013-05-02 04:06:00,
2013-05-02 00:09:00,68.6,59.6,30.15,North,32767,0.0,0.0,73,0.00,,,0.00,Wunderground v.1.13,2013-05-02 04:09:00,
2013-05-02 00:14:00,68.5,59.5,30.14,North,360,0.0,0.0,73,0.00,,,0.00,Wunderground v.1.13,2013-05-02 04:14:00,
2013-05-02 00:19:00,68.4,59.0,30.14,North,360,0.0,0.0,72,0.00,,,0.00,Wunderground v.1.13,2013-05-02 04:19:00,
2013-05-02 00:25:00,68.3,58.9,30.14,North,32767,0.0,0.0,72,0.00,,,0.00,Wunderground v.1.13,2013-05-02 04:25:00,
2013-05-02 00:30:00,68.2,58.8,30.14,North,32767,0.0,0.0,72,0.00,,,0.00,Wunderground v.1.13,2013-05-02 04:30:00,
2013-05-02 00:36:00,68.1,59.1,30.14,North,32767,0.0,0.0,73,0.00,,,0.00,Wunderground v.1.13,2013-05-02 04:36:00,
2013-05-02 00:41:00,68.0,59.0,30.14,North,32767,0.0,0.0,73,0.00,,,0.00,Wunderground v.1.13,2013-05-02 04:41:00,
2013-05-02 00:46:00,67.9,59.3,30.14,North,32767,0.0,0.0,74,0.00,,,0.00,Wunderground v.1.13,2013-05-02 04:46:00,
2013-05-02 00:52:00,67.7,59.1,30.14,North,32767,0.0,0.0,74,0.00,,,0.00,Wunderground v.1.13,2013-05-02 04:52:00,
2013-05-02 00:58:00,67.5,58.9,30.14,North,32767,0.0,0.0,74,0.00,,,0.00,Wunderground v.1.13,2013-05-02 04:58:00,
2013-05-02 01:03:00,67.4,58.8,30.14,North,32767,0.0,0.0,74,0.00,,,0.00,Wunderground v.1.13,2013-05-02 05:03:00,
2013-05-02 01:08:00,67.4,58.8,30.14,North,32767,0.0,0.0,74,0.00,,,0.00,Wunderground v.1.13,2013-05-02 05:08:00,
2013-05-02 01:14:00,67.4,58.4,30.14,North,32767,0.0,0.0,73,0.00,,,0.00,Wunderground v.1.13,2013-05-02 05:14:00,
2013-05-02 01:19:00,67.4,58.4,30.14,North,32767,0.0,0.0,73,0.00,,,0.00,Wunderground v.1.13,2013-05-02 05:19:00,
2013-05-02 01:24:00,67.5,58.5,30.14,North,32767,0.0,0.0,73,0.00,,,0.00,Wunderground v.1.13,2013-05-02 05:24:00,
2013-05-02 01:30:00,67.6,58.2,30.14,North,32767,0.0,0.0,72,0.00,,,0.00,Wunderground v.1.13,2013-05-02 05:30:00,
2013-05-02 01:35:00,67.6,58.2,30.14,North,32767,0.0,0.0,72,0.00,,,0.00,Wunderground v.1.13,2013-05-02 05:35:00,
2013-05-02 01:40:00,67.6,58.2,30.14,North,360,0.0,0.0,72,0.00,,,0.00,Wunderground v.1.13,2013-05-02 05:40:00,
2013-05-02 01:46:00,67.5,58.5,30.14,North,360,0.0,0.0,73,0.00,,,0.00,Wunderground v.1.13,2013-05-02 05:46:00,
2013-05-02 01:52:00,67.4,58.4,30.14,North,32767,0.0,0.0,73,0.00,,,0.00,Wunderground v.1.13,2013-05-02 05:52:00,
2013-05-02 01:57:00,67.2,58.2,30.14,North,32767,0.0,0.0,73,0.00,,,0.00,Wunderground v.1.13,2013-05-02 05:57:00,
2013-05-02 02:03:00,67.0,58.4,30.14,North,32767,0.0,0.0,74,0.00,,,0.00,Wunderground v.1.13,2013-05-02 06:03:00,
2013-05-02 02:08:00,66.6,58.1,30.14,North,32767,0.0,0.0,74,0.00,,,0.00,Wunderground v.1.13,2013-05-02 06:08:00,
2013-05-02 02:14:00,66.1,57.9,30.14,North,32767,0.0,0.0,75,0.00,,,0.00,Wunderground v.1.13,2013-05-02 06:14:00,
2013-05-02 02:20:00,65.7,58.3,30.14,North,32767,0.0,0.0,77,0.00,,,0.00,Wunderground v.1.13,2013-05-02 06:20:00,
2013-05-02 02:26:00,65.6,58.2,30.14,North,32767,0.0,0.0,77,0.00,,,0.00,Wunderground v.1.13,2013-05-02 06:26:00,
2013-05-02 02:32:00,65.6,58.2,30.14,North,32767,0.0,0.0,77,0.00,,,0.00,Wunderground v.1.13,2013-05-02 06:32:00,
2013-05-02 02:37:00,65.7,58.3,30.14,North,32767,0.0,0.0,77,0.00,,,0.00,Wunderground v.1.13,2013-05-02 06:37:00,
2013-05-02 02:43:00,65.6,58.2,30.13,North,32767,0.0,0.0,77,0.00,,,0.00,Wunderground v.1.13,2013-05-02 06:43:00,
2013-05-02 02:48:00,65.4,58.0,30.13,North,32767,0.0,0.0,77,0.00,,,0.00,Wunderground v.1.13,2013-05-02 06:48:00,
2013-05-02 02:54:00,65.3,58.3,30.13,North,32767,0.0,0.0,78,0.00,,,0.00,Wunderground v.1.13,2013-05-02 06:54:00,
2013-05-02 03:00:00,65.1,58.1,30.14,North,360,0.0,0.0,78,0.00,,,0.00,Wunderground v.1.13,2013-05-02 07:00:00,
2013-05-02 03:06:00,64.9,57.9,30.14,North,32767,0.0,0.0,78,0.00,,,0.00,Wunderground v.1.13,2013-05-02 07:06:00,
2013-05-02 03:12:00,64.7,58.0,30.13,North,32767,0.0,0.0,79,0.00,,,0.00,Wunderground v.1.13,2013-05-02 07:12:00,
2013-05-02 03:18:00,64.5,57.8,30.13,North,360,0.0,0.0,79,0.00,,,0.00,Wunderground v.1.13,2013-05-02 07:18:00,
2013-05-02 03:24:00,64.3,57.6,30.13,North,360,0.0,0.0,79,0.00,,,0.00,Wunderground v.1.13,2013-05-02 07:24:00,
2013-05-02 03:29:00,64.2,57.5,30.13,North,32767,0.0,0.0,79,0.00,,,0.00,Wunderground v.1.13,2013-05-02 07:29:00,
2013-05-02 03:35:00,64.0,57.7,30.13,North,32767,0.0,0.0,80,0.00,,,0.00,Wunderground v.1.13,2013-05-02 07:35:00,
2013-05-02 03:40:00,63.8,57.5,30.13,North,32767,0.0,0.0,80,0.00,,,0.00,Wunderground v.1.13,2013-05-02 07:40:00,
2013-05-02 03:46:00,63.6,57.3,30.13,North,360,0.0,0.0,80,0.00,,,0.00,Wunderground v.1.13,2013-05-02 07:46:00,
2013-05-02 03:51:00,63.4,57.5,30.13,North,360,0.0,0.0,81,0.00,,,0.00,Wunderground v.1.13,2013-05-02 07:51:00,
2013-05-02 03:57:00,63.2,57.3,30.14,North,360,0.0,0.0,81,0.00,,,0.00,Wunderground v.1.13,2013-05-02 07:57:00,
2013-05-02 04:02:00,63.0,57.4,30.14,North,360,0.0,0.0,82,0.00,,,0.00,Wunderground v.1.13,2013-05-02 08:02:00,
2013-05-02 04:08:00,62.7,57.1,30.14,North,32767,0.0,0.0,82,0.00,,,0.00,Wunderground v.1.13,2013-05-02 08:08:00,
2013-05-02 04:14:00,62.5,57.3,30.14,North,32767,0.0,0.0,83,0.00,,,0.00,Wunderground v.1.13,2013-05-02 08:14:00,
2013-05-02 04:20:00,62.3,57.1,30.14,North,32767,0.0,0.0,83,0.00,,,0.00,Wunderground v.1.13,2013-05-02 08:20:00,
2013-05-02 04:25:00,62.1,57.2,30.14,North,360,0.0,0.0,84,0.00,,,0.00,Wunderground v.1.13,2013-05-02 08:25:00,
2013-05-02 04:31:00,62.0,57.1,30.14,North,32767,0.0,0.0,84,0.00,,,0.00,Wunderground v.1.13,2013-05-02 08:31:00,
2013-05-02 04:36:00,61.8,56.9,30.14,North,32767,0.0,0.0,84,0.00,,,0.00,Wunderground v.1.13,2013-05-02 08:36:00,
2013-05-02 04:42:00,61.7,56.8,30.14,North,32767,0.0,0.0,84,0.00,,,0.00,Wunderground v.1.13,2013-05-02 08:42:00,
2013-05-02 04:48:00,61.6,56.7,30.14,North,360,0.0,0.0,84,0.00,,,0.00,Wunderground v.1.13,2013-05-02 08:48:00,
2013-05-02 04:53:00,61.4,56.8,30.14,North,360,0.0,0.0,85,0.00,,,0.00,Wunderground v.1.13,2013-05-02 08:53:00,
2013-05-02 04:59:00,61.3,56.8,30.14,North,32767,0.0,0.0,85,0.00,,,0.00,Wunderground v.1.13,2013-05-02 08:59:00,
2013-05-02 05:04:00,61.2,56.7,30.14,North,32767,0.0,0.0,85,0.00,,,0.00,Wunderground v.1.13,2013-05-02 09:04:00,
2013-05-02 05:10:00,61.0,56.5,30.14,North,32767,0.0,0.0,85,0.00,,,0.00,Wunderground v.1.13,2013-05-02 09:10:00,
2013-05-02 05:15:00,60.9,56.4,30.14,North,32767,0.0,0.0,85,0.00,,,0.00,Wunderground v.1.13,2013-05-02 09:15:00,
2013-05-02 05:20:00,60.9,56.4,30.14,North,32767,0.0,0.0,85,0.00,,,0.00,Wunderground v.1.13,2013-05-02 09:20:00,
2013-05-02 05:26:00,60.7,56.2,30.14,North,360,0.0,0.0,85,0.00,,,0.00,Wunderground v.1.13,2013-05-02 09:26:00,
2013-05-02 05:32:00,60.6,56.4,30.14,North,32767,0.0,0.0,86,0.00,,,0.00,Wunderground v.1.13,2013-05-02 09:32:00,
2013-05-02 05:38:00,60.5,56.3,30.14,North,32767,0.0,0.0,86,0.00,,,0.00,Wunderground v.1.13,2013-05-02 09:38:00,
2013-05-02 05:43:00,60.4,56.2,30.13,North,32767,0.0,0.0,86,0.00,,,0.00,Wunderground v.1.13,2013-05-02 09:43:00,
2013-05-02 05:48:00,60.3,56.1,30.13,North,32767,0.0,0.0,86,0.00,,,0.00,Wunderground v.1.13,2013-05-02 09:48:00,
2013-05-02 05:54:00,60.2,56.0,30.13,North,360,0.0,0.0,86,0.00,,,0.00,Wunderground v.1.13,2013-05-02 09:54:00,
2013-05-02 05:59:00,60.0,55.8,30.14,North,360,0.0,0.0,86,0.00,,,0.00,Wunderground v.1.13,2013-05-02 09:59:00,
2013-05-02 06:05:00,59.9,56.0,30.14,North,32767,0.0,0.0,87,0.00,,,0.00,Wunderground v.1.13,2013-05-02 10:05:00,
2013-05-02 06:10:00,59.8,55.9,30.14,North,360,0.0,0.0,87,0.00,,,0.00,Wunderground v.1.13,2013-05-02 10:10:00,
2013-05-02 06:16:00,59.7,55.8,30.14,North,360,0.0,0.0,87,0.00,,,0.00,Wunderground v.1.13,2013-05-02 10:16:00,
2013-05-02 06:22:00,59.6,55.7,30.14,North,360,0.0,0.0,87,0.00,,,0.00,Wunderground v.1.13,2013-05-02 10:22:00,
2013-05-02 06:27:00,59.5,55.6,30.14,North,360,0.0,0.0,87,0.00,,,0.00,Wunderground v.1.13,2013-05-02 10:27:00,
2013-05-02 06:33:00,59.4,55.8,30.14,North,32767,0.0,0.0,88,0.00,,,0.00,Wunderground v.1.13,2013-05-02 10:33:00,
2013-05-02 06:39:00,59.3,55.7,30.14,North,360,0.0,0.0,88,0.00,,,0.00,Wunderground v.1.13,2013-05-02 10:39:00,
2013-05-02 06:44:00,59.0,55.4,30.14,North,32767,0.0,0.0,88,0.00,,,0.00,Wunderground v.1.13,2013-05-02 10:44:00,
2013-05-02 06:50:00,59.0,55.4,30.14,North,32767,0.0,0.0,88,0.00,,,0.00,Wunderground v.1.13,2013-05-02 10:50:00,
2013-05-02 06:55:00,59.0,55.4,30.14,North,32767,0.0,0.0,88,0.00,,,0.00,Wunderground v.1.13,2013-05-02 10:55:00,
2013-05-02 07:00:00,59.0,55.4,30.15,North,360,0.0,0.0,88,0.00,,,0.00,Wunderground v.1.13,2013-05-02 11:00:00,
2013-05-02 07:06:00,59.0,55.8,30.15,North,32767,0.0,0.0,89,0.00,,,0.00,Wunderground v.1.13,2013-05-02 11:06:00,
2013-05-02 07:11:00,59.0,55.8,30.15,North,32767,0.0,0.0,89,0.00,,,0.00,Wunderground v.1.13,2013-05-02 11:11:00,
2013-05-02 07:17:00,59.2,56.0,30.15,North,32767,0.0,0.0,89,0.00,,,0.00,Wunderground v.1.13,2013-05-02 11:17:00,
2013-05-02 07:22:00,59.4,56.2,30.15,North,360,0.0,0.0,89,0.00,,,0.00,Wunderground v.1.13,2013-05-02 11:22:00,
2013-05-02 07:27:00,59.6,56.0,30.15,North,32767,0.0,0.0,88,0.00,,,0.00,Wunderground v.1.13,2013-05-02 11:27:00,
2013-05-02 07:33:00,60.0,56.4,30.15,North,360,0.0,0.0,88,0.00,,,0.00,Wunderground v.1.13,2013-05-02 11:33:00,
2013-05-02 07:39:00,60.8,56.9,30.15,North,32767,0.0,0.0,87,0.00,,,0.00,Wunderground v.1.13,2013-05-02 11:39:00,
2013-05-02 07:45:00,61.6,57.0,30.15,North,32767,0.0,0.0,85,0.00,,,0.00,Wunderground v.1.13,2013-05-02 11:45:00,
2013-05-02 07:51:00,62.4,56.8,30.15,North,360,0.0,0.0,82,0.00,,,0.00,Wunderground v.1.13,2013-05-02 11:51:00,
2013-05-02 07:56:00,62.9,57.0,30.15,North,360,0.0,0.0,81,0.00,,,0.00,Wunderground v.1.13,2013-05-02 11:56:00,
2013-05-02 08:02:00,63.4,56.8,30.15,North,32767,0.0,0.0,79,0.00,,,0.00,Wunderground v.1.13,2013-05-02 12:02:00,
2013-05-02 08:07:00,64.0,57.0,30.15,North,32767,0.0,0.0,78,0.00,,,0.00,Wunderground v.1.13,2013-05-02 12:07:00,
2013-05-02 08:12:00,64.4,57.0,30.16,North,32767,0.0,0.0,77,0.00,,,0.00,Wunderground v.1.13,2013-05-02 12:12:00,
2013-05-02 08:18:00,64.9,57.2,30.16,North,360,0.0,0.0,76,0.00,,,0.00,Wunderground v.1.13,2013-05-02 12:18:00,
2013-05-02 08:23:00,65.2,57.1,30.16,North,360,0.0,0.0,75,0.00,,,0.00,Wunderground v.1.13,2013-05-02 12:23:00,
2013-05-02 08:29:00,65.8,57.3,30.16,North,360,0.0,0.0,74,0.00,,,0.00,Wunderground v.1.13,2013-05-02 12:29:00,
2013-05-02 08:34:00,66.0,57.1,30.16,North,32767,0.0,0.0,73,0.00,,,0.00,Wunderground v.1.13,2013-05-02 12:34:00,
2013-05-02 08:40:00,66.1,57.2,30.16,North,32767,0.0,0.0,73,0.00,,,0.00,Wunderground v.1.13,2013-05-02 12:40:00,
2013-05-02 08:46:00,66.2,56.9,30.16,North,360,0.0,0.0,72,0.00,,,0.00,Wunderground v.1.13,2013-05-02 12:46:00,
2013-05-02 08:52:00,66.5,56.8,30.16,North,32767,0.0,0.0,71,0.00,,,0.00,Wunderground v.1.13,2013-05-02 12:52:00,
2013-05-02 08:58:00,66.9,57.2,30.16,North,32767,0.0,0.0,71,0.00,,,0.00,Wunderground v.1.13,2013-05-02 12:58:00,
2013-05-02 09:04:00,67.2,57.1,30.16,North,32767,0.0,0.0,70,0.00,,,0.00,Wunderground v.1.13,2013-05-02 13:04:00,
2013-05-02 09:09:00,67.6,57.5,30.16,North,32767,0.0,0.0,70,0.00,,,0.00,Wunderground v.1.13,2013-05-02 13:09:00,
2013-05-02 09:15:00,67.9,57.4,30.16,North,360,0.0,0.0,69,0.00,,,0.00,Wunderground v.1.13,2013-05-02 13:15:00,
2013-05-02 09:20:00,68.0,57.4,30.16,North,32767,0.0,0.0,69,0.00,,,0.00,Wunderground v.1.13,2013-05-02 13:20:00,
2013-05-02 09:25:00,68.2,57.6,30.16,North,32767,0.0,0.0,69,0.00,,,0.00,Wunderground v.1.13,2013-05-02 13:25:00,
2013-05-02 09:31:00,68.6,57.6,30.17,North,32767,0.0,0.0,68,0.00,,,0.00,Wunderground v.1.13,2013-05-02 13:31:00,
2013-05-02 09:37:00,69.1,58.1,30.17,North,360,0.0,0.0,68,0.00,,,0.00,Wunderground v.1.13,2013-05-02 13:37:00,
2013-05-02 09:43:00,69.9,58.4,30.16,North,32767,0.0,0.0,67,0.00,,,0.00,Wunderground v.1.13,2013-05-02 13:43:00,
2013-05-02 09:48:00,70.6,58.3,30.16,North,360,0.0,0.0,65,0.00,,,0.00,Wunderground v.1.13,2013-05-02 13:48:00,
2013-05-02 09:53:00,71.1,58.7,30.16,North,360,0.0,0.0,65,0.00,,,0.00,Wunderground v.1.13,2013-05-02 13:53:00,
2013-05-02 09:59:00,71.5,58.7,30.16,North,32767,0.0,0.0,64,0.00,,,0.00,Wunderground v.1.13,2013-05-02 13:59:00,
2013-05-02 10:04:00,71.8,59.0,30.16,North,32767,0.0,0.0,64,0.00,,,0.00,Wunderground v.1.13,2013-05-02 14:04:00,
2013-05-02 10:10:00,72.3,59.0,30.16,North,32767,0.0,0.0,63,0.00,,,0.00,Wunderground v.1.13,2013-05-02 14:10:00,
2013-05-02 10:15:00,72.7,58.9,30.16,North,360,0.0,0.0,62,0.00,,,0.00,Wunderground v.1.13,2013-05-02 14:15:00,
2013-05-02 10:21:00,72.7,58.9,30.16,North,32767,0.0,0.0,62,0.00,,,0.00,Wunderground v.1.13,2013-05-02 14:21:00,
2013-05-02 10:27:00,73.4,59.1,30.15,North,360,0.0,0.0,61,0.00,,,0.00,Wunderground v.1.13,2013-05-02 14:27:00,
2013-05-02 10:33:00,73.7,59.4,30.15,North,32767,0.0,0.0,61,0.00,,,0.00,Wunderground v.1.13,2013-05-02 14:33:00,
2013-05-02 10:39:00,74.6,59.3,30.15,North,32767,0.0,0.0,59,0.00,,,0.00,Wunderground v.1.13,2013-05-02 14:39:00,
2013-05-02 10:44:00,74.3,59.0,30.15,North,32767,0.0,0.0,59,0.00,,,0.00,Wunderground v.1.13,2013-05-02 14:44:00,
2013-05-02 10:50:00,74.1,59.3,30.15,North,32767,0.0,0.0,60,0.00,,,0.00,Wunderground v.1.13,2013-05-02 14:50:00,
2013-05-02 10:56:00,74.5,59.7,30.15,North,360,0.0,0.0,60,0.00,,,0.00,Wunderground v.1.13,2013-05-02 14:56:00,
2013-05-02 11:01:00,74.3,59.0,30.15,North,360,0.0,0.0,59,0.00,,,0.00,Wunderground v.1.13,2013-05-02 15:01:00,
2013-05-02 11:07:00,74.8,60.0,30.15,North,32767,0.0,0.0,60,0.00,,,0.00,Wunderground v.1.13,2013-05-02 15:07:00,
2013-05-02 11:13:00,75.8,60.0,30.15,North,32767,0.0,0.0,58,0.00,,,0.00,Wunderground v.1.13,2013-05-02 15:13:00,
2013-05-02 11:18:00,76.7,59.8,30.15,North,32767,0.0,0.0,56,0.00,,,0.00,Wunderground v.1.13,2013-05-02 15:18:00,
2013-05-02 11:24:00,76.1,59.3,30.15,North,32767,0.0,0.0,56,0.00,,,0.00,Wunderground v.1.13,2013-05-02 15:24:00,
2013-05-02 11:29:00,76.6,59.7,30.15,North,32767,0.0,0.0,56,0.00,,,0.00,Wunderground v.1.13,2013-05-02 15:29:00,
2013-05-02 11:35:00,77.9,59.9,30.15,North,32767,0.0,0.0,54,0.00,,,0.00,Wunderground v.1.13,2013-05-02 15:35:00,
2013-05-02 11:40:00,78.7,60.1,30.15,North,32767,0.0,0.0,53,0.00,,,0.00,Wunderground v.1.13,2013-05-02 15:40:00,
2013-05-02 11:46:00,78.7,60.1,30.14,North,32767,0.0,0.0,53,0.00,,,0.00,Wunderground v.1.13,2013-05-02 15:46:00,
2013-05-02 11:52:00,78.1,60.1,30.14,North,32767,0.0,0.0,54,0.00,,,0.00,Wunderground v.1.13,2013-05-02 15:52:00,
2013-05-02 11:58:00,78.4,60.4,30.14,North,360,0.0,0.0,54,0.00,,,0.00,Wunderground v.1.13,2013-05-02 15:58:00,
2013-05-02 12:03:00,78.8,60.7,30.14,North,32767,0.0,0.0,54,0.00,,,0.00,Wunderground v.1.13,2013-05-02 16:03:00,
2013-05-02 12:09:00,79.5,60.3,30.14,North,360,0.0,0.0,52,0.00,,,0.00,Wunderground v.1.13,2013-05-02 16:09:00,
2013-05-02 12:15:00,79.5,60.9,30.13,North,32767,0.0,0.0,53,0.00,,,0.00,Wunderground v.1.13,2013-05-02 16:15:00,
2013-05-02 12:21:00,80.7,61.4,30.13,North,360,0.0,0.0,52,0.00,,,0.00,Wunderground v.1.13,2013-05-02 16:21:00,
2013-05-02 12:27:00,80.8,61.0,30.13,North,360,0.0,0.0,51,0.00,,,0.00,Wunderground v.1.13,2013-05-02 16:27:00,
2013-05-02 12:32:00,80.3,60.5,30.13,North,32767,0.0,0.0,51,0.00,,,0.00,Wunderground v.1.13,2013-05-02 16:32:00,
2013-05-02 12:38:00,79.6,59.9,30.13,North,32767,0.0,0.0,51,0.00,,,0.00,Wunderground v.1.13,2013-05-02 16:38:00,
2013-05-02 12:44:00,80.3,60.5,30.13,North,32767,0.0,0.0,51,0.00,,,0.00,Wunderground v.1.13,2013-05-02 16:44:00,
2013-05-02 12:50:00,80.9,60.5,30.13,North,32767,0.0,0.0,50,0.00,,,0.00,Wunderground v.1.13,2013-05-02 16:50:00,
2013-05-02 12:56:00,80.9,59.9,30.13,North,32767,0.0,0.0,49,0.00,,,0.00,Wunderground v.1.13,2013-05-02 16:56:00,
2013-05-02 13:01:00,81.6,60.6,30.12,North,32767,0.0,0.0,49,0.00,,,0.00,Wunderground v.1.13,2013-05-02 17:01:00,
2013-05-02 13:07:00,82.2,60.6,30.12,North,360,0.0,0.0,48,0.00,,,0.00,Wunderground v.1.13,2013-05-02 17:07:00,
2013-05-02 13:12:00,82.4,60.1,30.12,North,360,0.0,0.0,47,0.00,,,0.00,Wunderground v.1.13,2013-05-02 17:12:00,
2013-05-02 13:18:00,81.5,59.9,30.12,North,360,0.0,0.0,48,0.00,,,0.00,Wunderground v.1.13,2013-05-02 17:18:00,
2013-05-02 13:24:00,81.9,60.3,30.12,North,32767,0.0,0.0,48,0.00,,,0.00,Wunderground v.1.13,2013-05-02 17:24:00,
2013-05-02 13:29:00,81.0,59.5,30.11,North,32767,0.0,0.0,48,0.00,,,0.00,Wunderground v.1.13,2013-05-02 17:29:00,
2013-05-02 13:35:00,80.9,59.9,30.11,North,360,0.0,0.0,49,0.00,,,0.00,Wunderground v.1.13,2013-05-02 17:35:00,
2013-05-02 13:41:00,81.3,59.7,30.11,North,32767,0.0,0.0,48,0.00,,,0.00,Wunderground v.1.13,2013-05-02 17:41:00,
2013-05-02 13:46:00,81.2,59.6,30.11,North,32767,0.0,0.0,48,0.00,,,0.00,Wunderground v.1.13,2013-05-02 17:46:00,
2013-05-02 13:52:00,80.8,58.7,30.11,North,360,0.0,0.0,47,0.00,,,0.00,Wunderground v.1.13,2013-05-02 17:52:00,
2013-05-02 13:57:00,80.9,59.9,30.10,North,32767,0.0,0.0,49,0.00,,,0.00,Wunderground v.1.13,2013-05-02 17:57:00,
2013-05-02 14:03:00,81.2,58.5,30.10,North,360,0.0,0.0,46,0.00,,,0.00,Wunderground v.1.13,2013-05-02 18:03:00,
2013-05-02 14:09:00,81.7,59.5,30.10,North,32767,0.0,0.0,47,0.00,,,0.00,Wunderground v.1.13,2013-05-02 18:09:00,
2013-05-02 14:15:00,80.9,58.8,30.10,North,360,0.0,0.0,47,0.00,,,0.00,Wunderground v.1.13,2013-05-02 18:15:00,
2013-05-02 14:21:00,81.7,59.5,30.10,North,360,0.0,0.0,47,0.00,,,0.00,Wunderground v.1.13,2013-05-02 18:21:00,
2013-05-02 14:27:00,81.8,58.4,30.10,North,32767,0.0,0.0,45,0.00,,,0.00,Wunderground v.1.13,2013-05-02 18:27:00,
2013-05-02 14:33:00,82.1,59.3,30.10,North,32767,0.0,0.0,46,0.00,,,0.00,Wunderground v.1.13,2013-05-02 18:33:00,
2013-05-02 14:39:00,81.5,58.7,30.10,North,32767,0.0,0.0,46,0.00,,,0.00,Wunderground v.1.13,2013-05-02 18:39:00,
2013-05-02 14:44:00,81.0,57.7,30.10,North,32767,0.0,0.0,45,0.00,,,0.00,Wunderground v.1.13,2013-05-02 18:44:00,
2013-05-02 14:50:00,80.7,58.6,30.10,North,32767,0.0,0.0,47,0.00,,,0.00,Wunderground v.1.13,2013-05-02 18:50:00,
2013-05-02 14:55:00,81.8,58.4,30.10,North,32767,0.0,0.0,45,0.00,,,0.00,Wunderground v.1.13,2013-05-02 18:55:00,
2013-05-02 15:01:00,82.4,59.5,30.09,North,32767,0.0,0.0,46,0.00,,,0.00,Wunderground v.1.13,2013-05-02 19:01:00,
2013-05-02 15:07:00,82.4,58.3,30.09,North,32767,0.0,0.0,44,0.00,,,0.00,Wunderground v.1.13,2013-05-02 19:07:00,
2013-05-02 15:12:00,82.0,58.6,30.09,North,32767,0.0,0.0,45,0.00,,,0.00,Wunderground v.1.13,2013-05-02 19:12:00,
2013-05-02 15:18:00,81.2,58.5,30.09,North,360,0.0,0.0,46,0.00,,,0.00,Wunderground v.1.13,2013-05-02 19:18:00,
2013-05-02 15:23:00,81.1,59.0,30.09,North,32767,0.0,0.0,47,0.00,,,0.00,Wunderground v.1.13,2013-05-02 19:23:00,
2013-05-02 15:29:00,81.0,58.9,30.09,North,32767,0.0,0.0,47,0.00,,,0.00,Wunderground v.1.13,2013-05-02 19:29:00,
2013-05-02 15:34:00,81.5,58.7,30.09,North,32767,0.0,0.0,46,0.00,,,0.00,Wunderground v.1.13,2013-05-02 19:34:00,
2013-05-02 15:40:00,81.4,59.2,30.09,North,32767,0.0,0.0,47,0.00,,,0.00,Wunderground v.1.13,2013-05-02 19:40:00,
2013-05-02 15:45:00,81.3,58.5,30.08,North,360,0.0,0.0,46,0.00,,,0.00,Wunderground v.1.13,2013-05-02 19:45:00,
2013-05-02 15:50:00,81.5,58.7,30.08,North,360,0.0,0.0,46,0.00,,,0.00,Wunderground v.1.13,2013-05-02 19:50:00,
2013-05-02 15:56:00,81.6,58.8,30.08,North,32767,0.0,0.0,46,0.00,,,0.00,Wunderground v.1.13,2013-05-02 19:56:00,
2013-05-02 16:02:00,81.0,58.9,30.07,North,360,0.0,0.0,47,0.00,,,0.00,Wunderground v.1.13,2013-05-02 20:02:00,
2013-05-02 16:07:00,80.5,58.4,30.07,North,360,0.0,0.0,47,0.00,,,0.00,Wunderground v.1.13,2013-05-02 20:07:00,
2013-05-02 16:13:00,80.2,58.7,30.07,North,360,0.0,0.0,48,0.00,,,0.00,Wunderground v.1.13,2013-05-02 20:13:00,
2013-05-02 16:18:00,80.0,58.5,30.07,North,32767,0.0,0.0,48,0.00,,,0.00,Wunderground v.1.13,2013-05-02 20:18:00,
2013-05-02 16:24:00,80.2,58.7,30.07,North,32767,0.0,0.0,48,0.00,,,0.00,Wunderground v.1.13,2013-05-02 20:24:00,
2013-05-02 16:29:00,79.6,58.2,30.07,North,32767,0.0,0.0,48,0.00,,,0.00,Wunderground v.1.13,2013-05-02 20:29:00,
2013-05-02 16:34:00,79.4,58.0,30.07,North,32767,0.0,0.0,48,0.00,,,0.00,Wunderground v.1.13,2013-05-02 20:34:00,
2013-05-02 16:40:00,79.1,58.3,30.07,North,32767,0.0,0.0,49,0.00,,,0.00,Wunderground v.1.13,2013-05-02 20:40:00,
2013-05-02 16:45:00,79.1,57.7,30.07,North,32767,0.0,0.0,48,0.00,,,0.00,Wunderground v.1.13,2013-05-02 20:45:00,
2013-05-02 16:50:00,79.3,57.9,30.07,North,32767,0.0,0.0,48,0.00,,,0.00,Wunderground v.1.13,2013-05-02 20:50:00,
2013-05-02 16:56:00,79.8,57.8,30.07,North,32767,0.0,0.0,47,0.00,,,0.00,Wunderground v.1.13,2013-05-02 20:56:00,
2013-05-02 17:02:00,79.8,57.8,30.06,North,32767,0.0,0.0,47,0.00,,,0.00,Wunderground v.1.13,2013-05-02 21:02:00,
2013-05-02 17:08:00,80.0,57.4,30.06,North,32767,0.0,0.0,46,0.00,,,0.00,Wunderground v.1.13,2013-05-02 21:08:00,
2013-05-02 17:13:00,79.6,57.6,30.06,North,32767,0.0,0.0,47,0.00,,,0.00,Wunderground v.1.13,2013-05-02 21:13:00,
2013-05-02 17:19:00,79.5,56.9,30.06,North,32767,0.0,0.0,46,0.00,,,0.00,Wunderground v.1.13,2013-05-02 21:19:00,
2013-05-02 17:25:00,79.3,57.3,30.06,North,32767,0.0,0.0,47,0.00,,,0.00,Wunderground v.1.13,2013-05-02 21:25:00,
2013-05-02 17:31:00,79.3,57.3,30.06,North,32767,0.0,0.0,47,0.00,,,0.00,Wunderground v.1.13,2013-05-02 21:31:00,
2013-05-02 17:37:00,79.3,57.3,30.06,North,32767,0.0,0.0,47,0.00,,,0.00,Wunderground v.1.13,2013-05-02 21:37:00,
2013-05-02 17:42:00,79.3,57.3,30.06,North,360,0.0,0.0,47,0.00,,,0.00,Wunderground v.1.13,2013-05-02 21:42:00,
2013-05-02 17:48:00,79.0,57.6,30.06,North,360,0.0,0.0,48,0.00,,,0.00,Wunderground v.1.13,2013-05-02 21:48:00,
2013-05-02 17:53:00,78.7,57.4,30.06,North,360,0.0,0.0,48,0.00,,,0.00,Wunderground v.1.13,2013-05-02 21:53:00,
2013-05-02 17:58:00,78.7,57.9,30.05,North,360,0.0,0.0,49,0.00,,,0.00,Wunderground v.1.13,2013-05-02 21:58:00,
2013-05-02 18:04:00,78.7,57.4,30.05,North,360,0.0,0.0,48,0.00,,,0.00,Wunderground v.1.13,2013-05-02 22:04:00,
2013-05-02 18:10:00,78.7,56.8,30.05,North,32767,0.0,0.0,47,0.00,,,0.00,Wunderground v.1.13,2013-05-02 22:10:00,
2013-05-02 18:16:00,78.7,56.8,30.05,North,360,0.0,0.0,47,0.00,,,0.00,Wunderground v.1.13,2013-05-02 22:16:00,
2013-05-02 18:22:00,78.6,56.7,30.05,North,360,0.0,0.0,47,0.00,,,0.00,Wunderground v.1.13,2013-05-02 22:22:00,
2013-05-02 18:27:00,78.7,57.4,30.05,North,360,0.0,0.0,48,0.00,,,0.00,Wunderground v.1.13,2013-05-02 22:27:00,
2013-05-02 18:33:00,78.4,57.1,30.05,North,360,0.0,0.0,48,0.00,,,0.00,Wunderground v.1.13,2013-05-02 22:33:00,
2013-05-02 18:39:00,78.4,56.5,30.05,North,360,0.0,0.0,47,0.00,,,0.00,Wunderground v.1.13,2013-05-02 22:39:00,
2013-05-02 18:45:00,78.3,55.8,30.05,North,32767,0.0,0.0,46,0.00,,,0.00,Wunderground v.1.13,2013-05-02 22:45:00,
2013-05-02 18:51:00,78.2,55.7,30.05,North,360,0.0,0.0,46,0.00,,,0.00,Wunderground v.1.13,2013-05-02 22:51:00,
2013-05-02 18:56:00,78.0,55.5,30.05,North,32767,0.0,0.0,46,0.00,,,0.00,Wunderground v.1.13,2013-05-02 22:56:00,
2013-05-02 19:01:00,78.0,55.5,30.05,North,32767,0.0,0.0,46,0.00,,,0.00,Wunderground v.1.13,2013-05-02 23:01:00,
2013-05-02 19:07:00,77.9,55.5,30.05,North,32767,0.0,0.0,46,0.00,,,0.00,Wunderground v.1.13,2013-05-02 23:07:00,
2013-05-02 19:13:00,77.8,55.4,30.04,North,32767,0.0,0.0,46,0.00,,,0.00,Wunderground v.1.13,2013-05-02 23:13:00,
2013-05-02 19:19:00,77.9,55.5,30.04,North,360,0.0,0.0,46,0.00,,,0.00,Wunderground v.1.13,2013-05-02 23:19:00,
2013-05-02 19:25:00,77.8,55.4,30.04,North,32767,0.0,0.0,46,0.00,,,0.00,Wunderground v.1.13,2013-05-02 23:25:00,
2013-05-02 19:30:00,77.8,55.4,30.04,North,32767,0.0,0.0,46,0.00,,,0.00,Wunderground v.1.13,2013-05-02 23:30:00,
2013-05-02 19:35:00,77.8,56.0,30.04,North,32767,0.0,0.0,47,0.00,,,0.00,Wunderground v.1.13,2013-05-02 23:35:00,
2013-05-02 19:41:00,77.6,55.2,30.04,North,360,0.0,0.0,46,0.00,,,0.00,Wunderground v.1.13,2013-05-02 23:41:00,
2013-05-02 19:47:00,77.5,55.1,30.04,North,360,0.0,0.0,46,0.00,,,0.00,Wunderground v.1.13,2013-05-02 23:47:00,
2013-05-02 19:53:00,77.4,55.6,30.04,North,32767,0.0,0.0,47,0.00,,,0.00,Wunderground v.1.13,2013-05-02 23:53:00,
2013-05-02 19:59:00,77.2,55.4,30.05,North,32767,0.0,0.0,47,0.00,,,0.00,Wunderground v.1.13,2013-05-02 23:59:00,
2013-05-02 20:05:00,77.0,55.2,30.05,North,32767,0.0,0.0,47,0.00,,,0.00,Wunderground v.1.13,2013-05-03 00:05:00,
2013-05-02 20:10:00,76.7,55.0,30.05,North,32767,0.0,0.0,47,0.00,,,0.00,Wunderground v.1.13,2013-05-03 00:10:00,
2013-05-02 20:16:00,76.3,55.7,30.04,North,360,0.0,0.0,49,0.00,,,0.00,Wunderground v.1.13,2013-05-03 00:16:00,
2013-05-02 20:21:00,75.9,55.4,30.04,North,360,0.0,0.0,49,0.00,,,0.00,Wunderground v.1.13,2013-05-03 00:21:00,
2013-05-02 20:27:00,75.4,55.5,30.05,North,32767,0.0,0.0,50,0.00,,,0.00,Wunderground v.1.13,2013-05-03 00:27:00,
2013-05-02 20:33:00,75.1,55.7,30.05,North,360,0.0,0.0,51,0.00,,,0.00,Wunderground v.1.13,2013-05-03 00:33:00,
2013-05-02 20:38:00,74.8,56.0,30.05,North,32767,0.0,0.0,52,0.00,,,0.00,Wunderground v.1.13,2013-05-03 00:38:00,
2013-05-02 20:43:00,74.6,55.8,30.05,North,32767,0.0,0.0,52,0.00,,,0.00,Wunderground v.1.13,2013-05-03 00:43:00,
2013-05-02 20:49:00,74.4,56.2,30.05,North,360,0.0,0.0,53,0.00,,,0.00,Wunderground v.1.13,2013-05-03 00:49:00,
2013-05-02 20:55:00,74.1,55.9,30.05,North,32767,0.0,0.0,53,0.00,,,0.00,Wunderground v.1.13,2013-05-03 00:55:00,
2013-05-02 21:00:00,74.0,56.3,30.06,North,360,0.0,0.0,54,0.00,,,0.00,Wunderground v.1.13,2013-05-03 01:00:00,
2013-05-02 21:06:00,73.7,56.0,30.06,North,32767,0.0,0.0,54,0.00,,,0.00,Wunderground v.1.13,2013-05-03 01:06:00,
2013-05-02 21:12:00,73.3,56.2,30.06,North,32767,0.0,0.0,55,0.00,,,0.00,Wunderground v.1.13,2013-05-03 01:12:00,
2013-05-02 21:18:00,72.4,56.8,30.06,North,32767,0.0,0.0,58,0.00,,,0.00,Wunderground v.1.13,2013-05-03 01:18:00,
2013-05-02 21:24:00,70.8,56.7,30.06,North,360,0.0,0.0,61,0.00,,,0.00,Wunderground v.1.13,2013-05-03 01:24:00,
2013-05-02 21:29:00,70.0,56.8,30.07,North,32767,0.0,0.0,63,0.00,,,0.00,Wunderground v.1.13,2013-05-03 01:29:00,
2013-05-02 21:35:00,69.1,56.4,30.07,North,360,0.0,0.0,64,0.00,,,0.00,Wunderground v.1.13,2013-05-03 01:35:00,
2013-05-02 21:41:00,68.8,56.6,30.07,North,360,0.0,0.0,65,0.00,,,0.00,Wunderground v.1.13,2013-05-03 01:41:00,
2013-05-02 21:46:00,68.4,56.6,30.07,North,360,0.0,0.0,66,0.00,,,0.00,Wunderground v.1.13,2013-05-03 01:46:00,
2013-05-02 21:52:00,68.1,56.3,30.07,North,32767,0.0,0.0,66,0.00,,,0.00,Wunderground v.1.13,2013-05-03 01:52:00,
2013-05-02 21:58:00,67.9,56.5,30.07,North,32767,0.0,0.0,67,0.00,,,0.00,Wunderground v.1.13,2013-05-03 01:58:00,
2013-05-02 22:04:00,67.6,56.2,30.07,North,360,0.0,0.0,67,0.00,,,0.00,Wunderground v.1.13,2013-05-03 02:04:00,
2013-05-02 22:09:00,67.5,56.6,30.07,North,360,0.0,0.0,68,0.00,,,0.00,Wunderground v.1.13,2013-05-03 02:09:00,
2013-05-02 22:14:00,67.4,56.5,30.07,North,32767,0.0,0.0,68,0.00,,,0.00,Wunderground v.1.13,2013-05-03 02:14:00,
2013-05-02 22:20:00,67.3,56.4,30.07,North,360,0.0,0.0,68,0.00,,,0.00,Wunderground v.1.13,2013-05-03 02:20:00,
2013-05-02 22:26:00,67.2,56.7,30.07,North,32767,0.0,0.0,69,0.00,,,0.00,Wunderground v.1.13,2013-05-03 02:26:00,
2013-05-02 22:32:00,67.2,56.3,30.07,North,32767,0.0,0.0,68,0.00,,,0.00,Wunderground v.1.13,2013-05-03 02:32:00,
2013-05-02 22:38:00,67.3,56.4,30.07,North,32767,0.0,0.0,68,0.00,,,0.00,Wunderground v.1.13,2013-05-03 02:38:00,
2013-05-02 22:43:00,67.4,56.5,30.07,North,360,0.0,0.0,68,0.00,,,0.00,Wunderground v.1.13,2013-05-03 02:43:00,
2013-05-02 22:48:00,67.6,56.2,30.07,North,360,0.0,0.0,67,0.00,,,0.00,Wunderground v.1.13,2013-05-03 02:48:00,
2013-05-02 22:54:00,67.7,56.3,30.07,North,32767,0.0,0.0,67,0.00,,,0.00,Wunderground v.1.13,2013-05-03 02:54:00,
2013-05-02 22:59:00,67.7,55.9,30.07,North,360,0.0,0.0,66,0.00,,,0.00,Wunderground v.1.13,2013-05-03 02:59:00,
2013-05-02 23:05:00,67.8,56.0,30.07,North,32767,0.0,0.0,66,0.00,,,0.00,Wunderground v.1.13,2013-05-03 03:05:00,
2013-05-02 23:11:00,67.9,56.1,30.07,North,32767,0.0,0.0,66,0.00,,,0.00,Wunderground v.1.13,2013-05-03 03:11:00,
2013-05-02 23:17:00,67.8,56.0,30.07,North,32767,0.0,0.0,66,0.00,,,0.00,Wunderground v.1.13,2013-05-03 03:17:00,
2013-05-02 23:23:00,67.7,55.9,30.07,North,32767,0.0,0.0,66,0.00,,,0.00,Wunderground v.1.13,2013-05-03 03:23:00,
2013-05-02 23:29:00,67.5,55.7,30.07,North,360,0.0,0.0,66,0.00,,,0.00,Wunderground v.1.13,2013-05-03 03:29:00,
2013-05-02 23:34:00,67.3,56.0,30.07,North,32767,0.0,0.0,67,0.00,,,0.00,Wunderground v.1.13,2013-05-03 03:34:00,
2013-05-02 23:40:00,67.1,56.2,30.07,North,32767,0.0,0.0,68,0.00,,,0.00,Wunderground v.1.13,2013-05-03 03:40:00,
2013-05-02 23:46:00,66.8,55.9,30.07,North,32767,0.0,0.0,68,0.00,,,0.00,Wunderground v.1.13,2013-05-03 03:46:00,
2013-05-02 23:51:00,66.6,55.7,30.07,North,360,0.0,0.0,68,0.00,,,0.00,Wunderground v.1.13,2013-05-03 03:51:00,
2013-05-02 23:57:00,66.4,56.3,30.07,North,32767,0.0,0.0,70,0.00,,,0.00,Wunderground v.1.13,2013-05-03 03:57:00,